FW4441 Weather Reports


time (UTC)temp
C
wind
direction
speed
KPH
gust
KPH
rain 1hr
cm
rain 24hr
cm
rain mn
cm
humidity
%
barometer
mb
20260831053107 14 24 1.6 4.8 0.00 0.00 0.00 68 1013.5
20260831051607 15 45 1.6 3.2 0.00 0.00 0.00 66 1013.5
20260831050030 15 45 0.0 0.0 0.00 0.00 0.00 64 1013.5
20260831044531 16 45 0.0 1.6 0.00 0.00 0.00 64 1013.5
20260831043029 16 44 1.6 6.4 0.00 0.00 0.00 63 1013.4
20260831041537 16 28 1.6 8.0 0.00 0.00 0.00 63 1013.4
20260831040031 16 31 6.4 11.3 0.00 0.00 0.00 63 1013.4
20260831034617 16 29 8.0 12.9 0.00 0.00 0.00 62 1013.2
20260831031531 17 14 8.0 12.9 0.00 0.00 0.00 58 1013.0
20260831030029 17 28 6.4 12.9 0.00 0.00 0.00 57 1013.0
20260831024530 18 358 3.2 8.0 0.00 0.00 0.00 54 1013.0
20260831023105 19 330 4.8 9.7 0.00 0.00 0.00 53 1012.9
20260831021605 20 307 3.2 8.0 0.00 0.00 0.00 52 1012.9
20260831014530 21 249 4.8 11.3 0.00 0.00 0.00 48 1012.9
20260831013028 22 231 9.7 19.3 0.00 0.00 0.00 46 1013.0
20260831011531 23 237 8.0 19.3 0.00 0.00 0.00 43 1013.0
20260831010031 23 246 9.7 19.3 0.00 0.00 0.00 42 1013.0
20260831004532 24 245 9.7 19.3 0.00 0.00 0.00 42 1013.1
20260831001529 25 246 9.7 20.9 0.00 0.00 0.00 40 1013.1
20260831000032 25 251 11.3 20.9 0.00 0.00 0.00 40 1013.2
20260830233030 25 250 11.3 25.7 0.00 0.00 0.00 39 1013.6
20260830231533 24 257 16.1 33.8 0.00 0.00 0.00 39 1013.7
20260830230030 24 274 12.9 29.0 0.00 0.00 0.00 41 1013.9
20260830223145 25 292 11.3 24.1 0.00 0.00 0.00 42 1014.4
20260830221531 25 287 11.3 22.5 0.00 0.00 0.00 43 1014.6
20260830220106 23 280 12.9 22.5 0.00 0.00 0.00 44 1014.7
20260830214531 23 286 14.5 29.0 0.00 0.00 0.00 44 1015.0
20260830211530 23 276 12.9 27.4 0.00 0.00 0.00 45 1015.2
20260830210034 23 280 16.1 30.6 0.00 0.00 0.00 46 1015.2
20260830203030 23 275 16.1 29.0 0.00 0.00 0.00 46 1015.7
20260830201609 23 267 12.9 27.4 0.00 0.00 0.00 46 1015.9
20260830200031 23 272 11.3 20.9 0.00 0.00 0.00 47 1016.1
20260830194605 22 271 9.7 19.3 0.00 0.00 0.00 48 1016.2
20260830190032 22 270 9.7 20.9 0.00 0.00 0.00 50 1016.7
20260830184529 21 270 9.7 17.7 0.00 0.00 0.00 51 1016.9
20260830183032 21 271 8.0 19.3 0.00 0.00 0.00 52 1017.0
20260830181529 20 255 11.3 22.5 0.00 0.00 0.00 54 1017.0
20260830180029 20 269 8.0 17.7 0.00 0.00 0.00 56 1017.1
20260830174530 18 275 9.7 16.1 0.00 0.00 0.00 57 1017.1
20260830173030 18 276 9.7 19.3 0.00 0.00 0.00 58 1017.3
20260830171529 18 279 9.7 17.7 0.00 0.00 0.00 59 1017.4
20260830170032 18 276 8.0 19.3 0.00 0.00 0.00 61 1017.5
20260830163030 16 276 3.2 6.4 0.00 0.00 0.00 69 1017.8
20260830161529 15 29 1.6 8.0 0.00 0.00 0.00 72 1017.9
20260830160031 15 19 1.6 6.4 0.00 0.00 0.00 75 1018.1
20260830153042 12 19 6.4 9.7 0.00 0.00 0.00 83 1018.2
20260830151532 11 161 0.0 4.8 0.00 0.00 0.00 84 1018.1
20260830150146 10 351 3.2 6.4 0.00 0.00 0.00 87 1018.2
20260830144606 9 38 1.6 6.4 0.00 0.00 0.00 88 1018.2
20260830143030 9 45 1.6 4.8 0.00 0.00 0.00 88 1018.1
20260830140028 9 336 0.0 4.8 0.00 0.00 0.00 88 1017.9
20260830134529 9 82 1.6 6.4 0.00 0.00 0.00 87 1017.8
20260830133035 8 358 0.0 4.8 0.00 0.00 0.00 87 1017.7
20260830131529 9 46 1.6 6.4 0.00 0.00 0.00 87 1017.5
20260830130028 8 45 3.2 6.4 0.00 0.00 0.00 85 1017.4
20260830124533 9 45 1.6 4.8 0.00 0.00 0.00 84 1017.4
20260830123104 9 45 3.2 4.8 0.00 0.00 0.00 83 1017.4
20260830121530 8 26 1.6 6.4 0.00 0.00 0.00 83 1017.4
20260830120029 9 353 1.6 6.4 0.00 0.00 0.00 83 1017.4
20260830114646 9 188 0.0 4.8 0.00 0.00 0.00 82 1017.3
20260830113031 9 59 3.2 8.0 0.00 0.00 0.00 81 1017.3
20260830111606 10 120 0.0 4.8 0.00 0.00 0.00 80 1017.3
20260830110032 9 90 0.0 3.2 0.00 0.00 0.00 80 1017.2
20260830104530 10 109 1.6 3.2 0.00 0.00 0.00 79 1017.3
20260830103108 10 26 0.0 3.2 0.00 0.00 0.00 79 1017.3
20260830101608 9 22 1.6 4.8 0.00 0.00 0.00 78 1017.3
20260830100030 10 94 0.0 6.4 0.00 0.00 0.00 77 1017.3
20260830094529 10 169 0.0 3.2 0.00 0.00 0.00 77 1017.3
20260830093032 11 110 1.6 4.8 0.00 0.00 0.00 77 1017.2
20260830090030 10 95 1.6 8.0 0.00 0.00 0.00 80 1017.2
20260830084532 10 112 1.6 4.8 0.00 0.00 0.00 78 1017.2
20260830083031 11 149 1.6 6.4 0.00 0.00 0.00 77 1017.4
20260830081607 11 223 1.6 6.4 0.00 0.00 0.00 77 1017.4
20260830073109 11 305 0.0 6.4 0.00 0.00 0.00 76 1017.4
20260830070030 11 208 1.6 9.7 0.00 0.00 0.00 74 1017.4
20260830064528 11 230 0.0 3.2 0.00 0.00 0.00 74 1017.2
20260830063032 12 207 1.6 8.0 0.00 0.00 0.00 73 1017.3
20260830061530 12 232 3.2 9.7 0.00 0.00 0.00 71 1017.3
20260830060106 12 206 0.0 3.2 0.00 0.00 0.00 71 1017.3